Location: Bednik
(45.3500°N, 16.3833°E)
Time: 05:30:09
(UTC+00:00)

Resurs 01 Rocket - Pass Details

Date: 08 August 2020
Orbit: 634 x 644 km, 98.0° (Epoch: 23 September)

Event Time Altitude Azimuth Distance (km) Brightness Sun altitude
Exits shadow 19:27:33 10° 168° (SSE) 2,009 3.7 -12.2°
Maximum altitude 19:31:56 83° 255° (WSW) 649 1.7 -12.8°
Drops below altitude 10° 19:36:23 10° 345° (NNW) 2,041 5.1 -13.4°
Sets 19:38:37 0° 347° (NNW) 2,957 6.0 -13.7°
